Flag for Switzerland Weather past 2 weeks in Solothurn, Solothurn, Switzerland

Now
67 °F

Mild.


Feels Like: 67 °F
Forecast: 55 / 78 °F
Wind: 1 mph from South

Location: Grenchen

Current Time: Aug 4, 2015 at 1:26:25 AM

Latest Report: Aug 4, 2015 at 12:00 AM


Visibility: N/A

Pressure: 29.98 "Hg

Humidity: 84%

Dew point: 62 °F

Location of SolothurnLocation

Historic Weather in Solothurn — Graph

°F

Solothurn temperature yesterday

Maximum temperature yesterday: 87 °F (at 6:00 PM)
Minimum temperature yesterday: 56 °F (at 5:00 AM)
Average temperature yesterday: 71 °F

Past Weeks' High & Low Weather Summary

 TemperatureHumidityPressure
High92 °F (Jul 21, 6:00 PM)98% (Aug 3, 7:00 AM)30.13 "Hg (Aug 3, 7:00 AM)
Low49 °F (Jul 30, 6:00 AM)32% (Jul 25, 6:00 PM)29.64 "Hg (Jul 24, 7:00 PM)
Average68 °F65%29.95 "Hg
* Reported Jul 19 11:00 PM — Aug 3 11:00 PM, Solothurn, Weather by CustomWeather, © 2015

Note: Actual official high and low records may vary slightly from our data, if they occured in-between our weather recording intervals... More about our weather records

Advertising

Solothurn weather history for previous 24 hours

 ConditionsComfort  
Time TempWeatherWind HumidityBarometerVisibility
11:00 PM
Mon, Aug 3
67 °FMild.2 mph82%29.97 "HgN/A
10:00 PM71 °FMild.2 mph75%29.96 "HgN/A
9:00 PM76 °FMild.2 mph61%29.95 "HgN/A
8:00 PM85 °FPleasantly warm.3 mph39%29.93 "HgN/A
7:00 PM86 °FPleasantly warm.3 mph38%29.93 "HgN/A
6:00 PM87 °FPleasantly warm.3 mph38%29.94 "HgN/A
5:00 PM86 °FPleasantly warm.2 mph37%29.96 "HgN/A
4:00 PM85 °FPleasantly warm.6 mph36%29.97 "HgN/A
3:00 PM84 °FWarm.6 mph41%29.98 "HgN/A
2:00 PM82 °FWarm.5 mph48%30.01 "HgN/A
1:00 PM79 °FWarm.3 mph54%30.03 "HgN/A
12:00 PM76 °FMild.6 mph56%30.05 "HgN/A
11:00 AM72 °FMild.3 mph61%30.07 "HgN/A
10:00 AM69 °FMild.2 mph74%30.09 "HgN/A
9:00 AM65 °FMild.3 mph82%30.10 "HgN/A
8:00 AM60 °FCool.1 mph88%30.10 "HgN/A
7:00 AM56 °FCool.1 mph98%30.11 "HgN/A
5:00 AM56 °FCool.2 mph97%30.09 "HgN/A
4:00 AM56 °FCool.2 mph96%30.09 "HgN/A
3:00 AM57 °FCool.1 mph96%30.09 "HgN/A
2:00 AM59 °FCool.No wind93%30.08 "HgN/A
1:00 AM60 °FCool.1 mph90%30.07 "HgN/A
Weather by CustomWeather, © 2015

See weather overviewHow to use our weather pages